| time (UTC) | temp F | wind direction | speed MPH | gust MPH | rain 1hr in | rain 24hr in | rain mn in | humidity % | barometer mb |
| 20260902170606 | 70 | 16 | 2.0 | 14.0 | 0.00 | 0.00 | 0.00 | 41 | 1022.7 |
| 20260902160606 | 67 | 15 | 2.0 | 10.0 | 0.00 | 0.00 | 0.00 | 46 | 1022.8 |
| 20260902160111 | 67 | 15 | 2.0 | 10.0 | 0.00 | 0.00 | 0.00 | 47 | 1022.8 |
| 20260902150605 | 64 | 14 | 2.0 | 6.0 | 0.00 | 0.00 | 0.00 | 52 | 1023.7 |
| 20260902150111 | 63 | 16 | 1.0 | 8.0 | 0.00 | 0.00 | 0.00 | 54 | 1023.7 |
| 20260902140605 | 56 | 197 | 0.0 | 3.0 | 0.00 | 0.00 | 0.00 | 67 | 1023.4 |
| 20260902130605 | 50 | 199 | 0.0 | 1.0 | 0.00 | 0.00 | 0.00 | 75 | 1023.6 |
| 20260902130111 | 50 | 202 | 0.0 | 1.0 | 0.00 | 0.00 | 0.00 | 74 | 1023.6 |
| 20260902110605 | 51 | 213 | 0.0 | 1.0 | 0.00 | 0.00 | 0.00 | 73 | 1023.3 |
| 20260902110110 | 51 | 213 | 0.0 | 1.0 | 0.00 | 0.00 | 0.00 | 73 | 1023.3 |
| 20260902100605 | 52 | 210 | 0.0 | 0.0 | 0.00 | 0.01 | 0.00 | 71 | 1023.1 |
| 20260902100111 | 52 | 212 | 0.0 | 0.0 | 0.00 | 0.01 | 0.00 | 70 | 1023.1 |
| 20260902090605 | 54 | 229 | 0.0 | 0.0 | 0.00 | 0.01 | 0.00 | 66 | 1023.1 |
| 20260902090110 | 54 | 231 | 0.0 | 0.0 | 0.00 | 0.01 | 0.00 | 65 | 1023.2 |
| 20260902080605 | 58 | 38 | 0.0 | 0.0 | 0.00 | 0.01 | 0.00 | 59 | 1023.3 |
| 20260902080111 | 58 | 39 | 0.0 | 0.0 | 0.00 | 0.01 | 0.00 | 59 | 1023.4 |
| 20260902070605 | 58 | 38 | 0.0 | 0.0 | 0.00 | 0.01 | 0.00 | 58 | 1023.4 |
| 20260902070110 | 58 | 36 | 0.0 | 0.0 | 0.00 | 0.01 | 0.00 | 58 | 1023.4 |
| 20260902060110 | 59 | 181 | 0.0 | 1.0 | 0.00 | 0.01 | 0.00 | 55 | 1024.0 |
| 20260902050605 | 58 | 187 | 0.0 | 0.0 | 0.00 | 0.01 | 0.01 | 55 | 1023.9 |
| 20260902050112 | 58 | 188 | 0.0 | 0.0 | 0.00 | 0.01 | 0.01 | 54 | 1023.9 |
| 20260902020607 | 62 | 21 | 0.0 | 0.0 | 0.00 | 0.01 | 0.01 | 37 | 1023.2 |
| 20260902010607 | 70 | 17 | 1.0 | 6.0 | 0.00 | 0.01 | 0.01 | 22 | 1023.1 |
| 20260902010113 | 70 | 20 | 1.0 | 6.0 | 0.00 | 0.01 | 0.01 | 22 | 1023.2 |
| 20260902000606 | 74 | 222 | 2.0 | 9.0 | 0.00 | 0.01 | 0.01 | 20 | 1023.6 |
| 20260902000111 | 74 | 199 | 1.0 | 6.0 | 0.00 | 0.01 | 0.01 | 21 | 1023.6 |
| 20260901230606 | 75 | 197 | 1.0 | 7.0 | 0.00 | 0.01 | 0.01 | 22 | 1023.8 |
| 20260901230112 | 75 | 216 | 1.0 | 8.0 | 0.00 | 0.01 | 0.01 | 22 | 1023.8 |
| 20260901220605 | 74 | 207 | 2.0 | 6.0 | 0.00 | 0.01 | 0.01 | 21 | 1024.5 |
| 20260901220112 | 74 | 234 | 2.0 | 7.0 | 0.00 | 0.01 | 0.01 | 22 | 1024.7 |
| 20260901210606 | 74 | 24 | 2.0 | 8.0 | 0.00 | 0.01 | 0.01 | 28 | 1025.2 |
| 20260901200606 | 74 | 20 | 2.0 | 12.0 | 0.00 | 0.01 | 0.01 | 31 | 1026.3 |
| 20260901200112 | 74 | 21 | 2.0 | 12.0 | 0.00 | 0.01 | 0.01 | 32 | 1026.3 |
| 20260901190606 | 72 | 18 | 2.0 | 9.0 | 0.00 | 0.01 | 0.01 | 40 | 1026.8 |
| 20260901190111 | 71 | 18 | 1.0 | 8.0 | 0.00 | 0.01 | 0.01 | 41 | 1026.8 |
| 20260901180605 | 69 | 15 | 2.0 | 9.0 | 0.00 | 0.07 | 0.01 | 47 | 1027.6 |